Flag for Argentina Weather past 2 weeks in Salta, Salta, Argentina

Now
57 °F

Passing clouds.


Feels Like: 57 °F
Forecast: 53 / 69 °F
Wind: No wind

Location: Salta Aerodrome

Current Time: Mar 27, 2015 at 10:57:47 PM

Latest Report: Mar 27, 2015 at 9:00 PM


Visibility: N/A

Pressure: 30.24 "Hg

Humidity: 88%

Dew point: 54 °F

Location of SaltaLocation

Historic Weather in Salta — Graph

°F

Salta temperature yesterday

Maximum temperature yesterday: 64 °F (at 3:00 PM)
Minimum temperature yesterday: 55 °F (at 7:00 AM)
Average temperature yesterday: 58 °F

Past Weeks' High & Low Weather Summary

 TemperatureHumidityPressure
High86 °F (Mar 20, 4:00 PM)100% (Mar 15, 1:00 AM)30.27 "Hg (Mar 15, 1:00 AM)
Low54 °F (Mar 27, 5:00 AM)46% (Mar 20, 4:00 PM)29.86 "Hg (Mar 13, 4:00 PM)
Average66 °F86%30.11 "Hg
* Reported Mar 12 9:00 PM — Mar 27 9:00 PM, Salta, Weather by CustomWeather, © 2015

Note: Actual official high and low records may vary slightly from our data, if they occured in-between our weather recording intervals... More about our weather records

Advertising

Salta weather history for previous 24 hours

 ConditionsComfort  
Time TempWeatherWind HumidityBarometerVisibility
9:00 PM
Fri, Mar 27
57 °FPassing clouds.No wind88%30.24 "HgN/A
8:00 PM59 °FPassing clouds.2 mph82%30.21 "HgN/A
7:00 PM61 °FPassing clouds.3 mph72%30.21 "HgN/A
6:00 PM63 °FScattered clouds.3 mph68%30.18 "HgN/A
5:00 PM63 °FBroken clouds.8 mph68%30.18 "HgN/A
4:00 PM64 °FBroken clouds.5 mph68%30.18 "HgN/A
3:00 PM64 °FBroken clouds.3 mph64%30.21 "HgN/A
2:00 PM63 °FPartly sunny.6 mph68%30.24 "HgN/A
1:00 PM61 °FPartly sunny.7 mph77%30.27 "HgN/A
12:00 PM59 °FMore clouds than sun.5 mph77%30.27 "HgN/A
11:00 AM57 °FMore clouds than sun.5 mph88%30.27 "HgN/A
10:00 AM57 °FMostly cloudy.2 mph88%30.27 "HgN/A
9:00 AM55 °FPartly sunny.3 mph94%30.24 "HgN/A
8:00 AM55 °FPartly sunny.3 mph94%30.24 "HgN/A
7:00 AM54 °FScattered clouds.6 mph94%30.21 "HgN/A
6:00 AM54 °FPassing clouds.3 mph100%30.21 "Hg4 mi
5:00 AM54 °FPartly cloudy.1 mph100%30.18 "HgN/A
4:00 AM55 °FMostly cloudy.No wind100%30.21 "HgN/A
3:00 AM55 °FMostly cloudy.No wind100%30.21 "HgN/A
2:00 AM55 °FMostly cloudy.2 mph94%30.24 "HgN/A
1:00 AM55 °FMostly cloudy.2 mph94%30.24 "HgN/A
11:00 PM
Thu, Mar 26
55 °FMostly cloudy.5 mph94%30.24 "Hg5 mi
Weather by CustomWeather, © 2015

See weather overviewHow to use our weather pages